• In Austria
  • List of Countries
  • For 7 days
  • Water Temperature
  • Satellite Maps
  • Weather Map
  • News
  • Weather Widgets
  • user-avatar
    Login

    Hourly Weather Gomel

    Today, 23 October, Tuesday

    Time Temperature Precipitation Wind Pressure Humidity
    00:00 +3°C° 0 mm 3 mps 751 mmHg 78%
    01:00 +3°C° 0 mm 3 mps 751 mmHg 81%
    02:00 +3°C° 0 mm 3 mps 750 mmHg 80%
    03:00 +3°C° 0 mm 3 mps 749 mmHg 82%
    04:00 +2°C° 0 mm 3 mps 749 mmHg 84%
    05:00 +1°C° 0 mm 4 mps 748 mmHg 86%
    06:00 +3°C° 0 mm 4 mps 748 mmHg 86%
    07:00 +3°C° 0 mm 4 mps 748 mmHg 86%
    08:00 +4°C° 0 mm 4 mps 747 mmHg 85%
    09:00 +5°C° 0 mm 4 mps 747 mmHg 82%
    10:00 +5°C° 0 mm 4 mps 747 mmHg 79%
    11:00 +6°C° 0 mm 4 mps 746 mmHg 76%
    12:00 +6°C° 0 mm 4 mps 745 mmHg 72%
    13:00 +7°C° 0 mm 4 mps 744 mmHg 68%
    14:00 +7°C° 0 mm 5 mps 744 mmHg 64%
    15:00 +6°C° 0 mm 4 mps 743 mmHg 66%
    16:00 +6°C° 0 mm 4 mps 742 mmHg 67%
    17:00 +6°C° 0 mm 4 mps 741 mmHg 69%
    18:00 +5°C° 0.3 mm 5 mps 740 mmHg 71%
    19:00 +5°C° 0.3 mm 5 mps 739 mmHg 73%
    20:00 +4°C° 0.3 mm 6 mps 738 mmHg 76%
    21:00 +4°C° 0.4 mm 6 mps 737 mmHg 76%
    22:00 +4°C° 0.4 mm 6 mps 735 mmHg 77%
    23:00 +4°C° 0.4 mm 7 mps 734 mmHg 78%

    Tomorrow, 24 October, Wednesday

    Time Temperature Precipitation Wind Pressure Humidity
    00:00 +4°C° 0.4 mm 6 mps 733 mmHg 79%
    01:00 +4°C° 0.4 mm 6 mps 732 mmHg 81%
    02:00 +4°C° 0.4 mm 6 mps 731 mmHg 83%
    03:00 +4°C° 0.5 mm 6 mps 730 mmHg 84%
    04:00 +4°C° 0.5 mm 6 mps 729 mmHg 84%
    05:00 +4°C° 0.5 mm 6 mps 728 mmHg 85%
    06:00 +4°C° 0.5 mm 6 mps 728 mmHg 86%
    07:00 +5°C° 0.5 mm 5 mps 727 mmHg 86%
    08:00 +5°C° 0.5 mm 5 mps 727 mmHg 87%
    09:00 +6°C° 0.5 mm 5 mps 727 mmHg 86%
    10:00 +6°C° 0.5 mm 4 mps 726 mmHg 85%
    11:00 +6°C° 0.5 mm 4 mps 726 mmHg 83%
    12:00 +6°C° 0.6 mm 4 mps 726 mmHg 82%
    13:00 +6°C° 0.6 mm 4 mps 727 mmHg 81%
    14:00 +6°C° 0.6 mm 4 mps 727 mmHg 79%
    15:00 +6°C° 0.3 mm 4 mps 727 mmHg 80%
    16:00 +6°C° 0.3 mm 4 mps 727 mmHg 80%
    17:00 +5°C° 0.3 mm 4 mps 728 mmHg 81%
    18:00 +5°C° 0.1 mm 4 mps 728 mmHg 83%
    19:00 +4°C° 0.1 mm 3 mps 728 mmHg 85%
    20:00 +4°C° 0.1 mm 3 mps 728 mmHg 88%
    21:00 +3°C° 0 mm 3 mps 729 mmHg 89%
    22:00 +3°C° 0 mm 3 mps 729 mmHg 91%
    23:00 +3°C° 0 mm 3 mps 729 mmHg 93%

    Day after tomorrow, 25 October, Thursday

    Time Temperature Precipitation Wind Pressure Humidity
    00:00 +3°C° 0 mm 3 mps 730 mmHg 93%
    01:00 +3°C° 0 mm 4 mps 730 mmHg 94%
    02:00 +3°C° 0 mm 4 mps 731 mmHg 94%
    03:00 +3°C° 0.2 mm 4 mps 731 mmHg 92%
    04:00 +2°C° 0.2 mm 5 mps 732 mmHg 90%
    05:00 +3°C° 0.2 mm 5 mps 732 mmHg 88%
    06:00 +3°C° 0.2 mm 5 mps 733 mmHg 86%
    07:00 +3°C° 0.2 mm 6 mps 733 mmHg 84%
    08:00 +3°C° 0.2 mm 6 mps 734 mmHg 82%
    09:00 +3°C° 0.2 mm 6 mps 734 mmHg 80%
    10:00 +3°C° 0.2 mm 6 mps 735 mmHg 77%
    11:00 +3°C° 0.2 mm 6 mps 736 mmHg 74%
    12:00 +3°C° 0 mm 6 mps 736 mmHg 72%
    13:00 +4°C° 0 mm 6 mps 736 mmHg 69%
    14:00 +4°C° 0 mm 6 mps 736 mmHg 66%
    15:00 +3°C° 0 mm 5 mps 736 mmHg 69%
    16:00 +3°C° 0 mm 5 mps 736 mmHg 71%
    17:00 +3°C° 0 mm 4 mps 737 mmHg 74%
    18:00 +3°C° 0 mm 3 mps 736 mmHg 74%
    19:00 +3°C° 0 mm 3 mps 736 mmHg 73%
    20:00 +4°C° 0 mm 2 mps 736 mmHg 73%
    21:00 +4°C° 0 mm 2 mps 736 mmHg 75%
    22:00 +4°C° 0 mm 2 mps 736 mmHg 77%
    23:00 +4°C° 0 mm 2 mps 736 mmHg 79%

    26 October, Friday

    Time Temperature Precipitation Wind Pressure Humidity
    00:00 +5°C° 0.1 mm 1 mps 736 mmHg 81%
    01:00 +5°C° 0.1 mm 1 mps 736 mmHg 83%
    02:00 +4°C° 0.1 mm 1 mps 736 mmHg 85%
    03:00 +4°C° 0 mm 1 mps 737 mmHg 87%
    04:00 +4°C° 0 mm 1 mps 737 mmHg 89%
    05:00 +4°C° 0 mm 1 mps 738 mmHg 90%
    06:00 +4°C° 0 mm 1 mps 738 mmHg 90%
    07:00 +3°C° 0 mm 2 mps 739 mmHg 89%
    08:00 +3°C° 0 mm 2 mps 739 mmHg 89%
    09:00 +3°C° 0 mm 3 mps 739 mmHg 83%
    10:00 +4°C° 0 mm 4 mps 740 mmHg 78%
    11:00 +5°C° 0 mm 4 mps 740 mmHg 73%
    12:00 +5°C° 0.2 mm 5 mps 740 mmHg 74%
    13:00 +5°C° 0.2 mm 5 mps 740 mmHg 76%
    14:00 +5°C° 0.2 mm 5 mps 740 mmHg 77%
    15:00 +5°C° 0.1 mm 5 mps 741 mmHg 78%
    16:00 +4°C° 0.1 mm 4 mps 741 mmHg 79%
    17:00 +4°C° 0.1 mm 4 mps 742 mmHg 79%
    18:00 +3°C° 0 mm 3 mps 742 mmHg 82%
    19:00 +3°C° 0 mm 3 mps 743 mmHg 85%
    20:00 +2°C° 0 mm 3 mps 743 mmHg 87%
    21:00 +3°C° 0 mm 3 mps 743 mmHg 87%
    22:00 +3°C° 0 mm 3 mps 743 mmHg 86%
    23:00 +3°C° 0 mm 4 mps 743 mmHg 86%

    27 October, Saturday

    Time Temperature Precipitation Wind Pressure Humidity
    00:00 +4°C° 0 mm 4 mps 743 mmHg 84%
    01:00 +3°C° 0 mm 5 mps 743 mmHg 83%
    02:00 +5°C° 0 mm 5 mps 743 mmHg 81%
    03:00 +4°C° 0.1 mm 6 mps 742 mmHg 82%
    04:00 +3°C° 0.1 mm 6 mps 741 mmHg 83%
    05:00 +3°C° 0.1 mm 7 mps 741 mmHg 84%
    06:00 +4°C° 0.1 mm 7 mps 740 mmHg 83%
    07:00 +5°C° 0.1 mm 8 mps 740 mmHg 82%
    08:00 +6°C° 0.1 mm 8 mps 739 mmHg 81%
    09:00 +6°C° 0.2 mm 8 mps 739 mmHg 79%
    10:00 +7°C° 0.2 mm 8 mps 739 mmHg 77%
    11:00 +8°C° 0.2 mm 9 mps 739 mmHg 75%
    12:00 +8°C° 0.3 mm 9 mps 739 mmHg 68%
    13:00 +8°C° 0.3 mm 9 mps 739 mmHg 61%
    14:00 +10°C° 0.3 mm 9 mps 739 mmHg 54%
    15:00 +7°C° 0 mm 8 mps 740 mmHg 59%
    16:00 +6°C° 0 mm 7 mps 741 mmHg 64%
    17:00 +5°C° 0 mm 6 mps 742 mmHg 68%
    18:00 +5°C° 0 mm 5 mps 743 mmHg 70%
    19:00 +5°C° 0 mm 5 mps 744 mmHg 72%
    20:00 +5°C° 0 mm 4 mps 744 mmHg 73%
    21:00 +4°C° 0 mm 4 mps 745 mmHg 77%
    22:00 +4°C° 0 mm 3 mps 746 mmHg 80%
    23:00 +3°C° 0 mm 3 mps 747 mmHg 84%

    28 October, Sunday

    Time Temperature Precipitation Wind Pressure Humidity
    00:00 +4°C° 0 mm 2 mps 747 mmHg 85%
    01:00 +3°C° 0 mm 2 mps 748 mmHg 87%
    02:00 +4°C° 0 mm 1 mps 748 mmHg 88%
    03:00 +4°C° 0 mm 1 mps 749 mmHg 89%
    04:00 +4°C° 0 mm 1 mps 749 mmHg 90%
    05:00 +4°C° 0 mm 1 mps 750 mmHg 91%
    06:00 +4°C° 0 mm 1 mps 750 mmHg 90%
    07:00 +4°C° 0 mm 1 mps 751 mmHg 89%
    08:00 +5°C° 0 mm 1 mps 752 mmHg 88%
    09:00 +6°C° 0 mm 1 mps 752 mmHg 82%
    10:00 +7°C° 0 mm 1 mps 752 mmHg 77%
    11:00 +8°C° 0 mm 1 mps 753 mmHg 72%
    12:00 +8°C° 0 mm 1 mps 753 mmHg 69%
    13:00 +8°C° 0 mm 1 mps 753 mmHg 67%
    14:00 +8°C° 0 mm 0 mps 753 mmHg 65%
    15:00 +8°C° 0 mm 1 mps 754 mmHg 68%
    16:00 +8°C° 0 mm 1 mps 754 mmHg 71%
    17:00 +7°C° 0 mm 1 mps 754 mmHg 74%
    18:00 +7°C° 0 mm 1 mps 754 mmHg 76%
    19:00 +6°C° 0 mm 2 mps 755 mmHg 78%
    20:00 +6°C° 0 mm 2 mps 755 mmHg 80%
    21:00 +5°C° 0.2 mm 2 mps 755 mmHg 82%
    22:00 +4°C° 0.2 mm 3 mps 755 mmHg 83%
    23:00 +4°C° 0.2 mm 3 mps 755 mmHg 85%

    29 October, Monday

    Time Temperature Precipitation Wind Pressure Humidity
    00:00 +4°C° 0.9 mm 3 mps 754 mmHg 86%
    01:00 +4°C° 0.9 mm 3 mps 754 mmHg 88%
    02:00 +4°C° 0.9 mm 4 mps 754 mmHg 89%
    03:00 +4°C° 1.7 mm 4 mps 754 mmHg 89%
    04:00 +3°C° 1.7 mm 5 mps 753 mmHg 90%
    05:00 +3°C° 1.7 mm 5 mps 753 mmHg 90%
    06:00 +3°C° 0.6 mm 6 mps 752 mmHg 89%
    07:00 +3°C° 0.6 mm 6 mps 752 mmHg 89%
    08:00 +3°C° 0.6 mm 6 mps 752 mmHg 88%
    09:00 +3°C° 0.3 mm 6 mps 751 mmHg 88%
    10:00 +3°C° 0.3 mm 6 mps 751 mmHg 88%
    11:00 +3°C° 0.3 mm 5 mps 751 mmHg 88%
    12:00 +3°C° 0.1 mm 5 mps 750 mmHg 89%
    13:00 +3°C° 0.1 mm 5 mps 750 mmHg 89%
    14:00 +3°C° 0.1 mm 5 mps 750 mmHg 89%
    15:00 +4°C° 0.2 mm 4 mps 749 mmHg 90%
    16:00 +4°C° 0.2 mm 4 mps 749 mmHg 91%
    17:00 +4°C° 0.2 mm 4 mps 749 mmHg 92%
    18:00 +4°C° 0.6 mm 4 mps 749 mmHg 92%
    19:00 +4°C° 0.6 mm 4 mps 748 mmHg 93%
    20:00 +3°C° 0.6 mm 4 mps 748 mmHg 93%
    21:00 +3°C° 0.9 mm 4 mps 748 mmHg 93%
    22:00 +3°C° 0.9 mm 4 mps 748 mmHg 93%
    23:00 +3°C° 0.9 mm 4 mps 748 mmHg 93%
    Show more